• In Deutschland
  • Länderverzeichnis
  • Für 7 Tage
  • Wassertemperatur
  • Satellitenkarten
  • Wetterkarte
  • Widgets
  • user-avatar
    Anmelden

    Stündliche Wetter Würselen

    Heute, 18 Oktober, Mittwoch

    Zeit Temperatur Niederschläge Wind Luftdruck Luftfeuchtigkeit
    00:00 +13°C° 0 mm 1 m/S 745 mmHg 88%
    01:00 +13°C° 0 mm 1 m/S 745 mmHg 88%
    02:00 +13°C° 0 mm 1 m/S 745 mmHg 88%
    03:00 +12°C° 0 mm 2 m/S 744 mmHg 88%
    04:00 +12°C° 0 mm 2 m/S 744 mmHg 87%
    05:00 +12°C° 0 mm 2 m/S 744 mmHg 86%
    06:00 +10°C° 0 mm 2 m/S 744 mmHg 86%
    07:00 +13°C° 0 mm 2 m/S 744 mmHg 79%
    08:00 +15°C° 0 mm 2 m/S 744 mmHg 72%
    09:00 +16°C° 0 mm 2 m/S 744 mmHg 65%
    10:00 +17°C° 0 mm 2 m/S 744 mmHg 62%
    11:00 +19°C° 0 mm 2 m/S 743 mmHg 59%
    12:00 +20°C° 0 mm 2 m/S 743 mmHg 56%
    13:00 +20°C° 0 mm 2 m/S 743 mmHg 59%
    14:00 +20°C° 0 mm 2 m/S 743 mmHg 62%
    15:00 +21°C° 0 mm 1 m/S 742 mmHg 65%
    16:00 +19°C° 0 mm 1 m/S 742 mmHg 71%
    17:00 +18°C° 0 mm 1 m/S 742 mmHg 77%
    18:00 +15°C° 0 mm 1 m/S 742 mmHg 84%
    19:00 +14°C° 0 mm 2 m/S 742 mmHg 85%
    20:00 +14°C° 0 mm 2 m/S 742 mmHg 86%
    21:00 +14°C° 0 mm 2 m/S 742 mmHg 86%
    22:00 +13°C° 0 mm 2 m/S 742 mmHg 87%
    23:00 +13°C° 0 mm 2 m/S 742 mmHg 88%

    Morgen, 19 Oktober, Donnerstag

    Zeit Temperatur Niederschläge Wind Luftdruck Luftfeuchtigkeit
    00:00 +13°C° 0 mm 2 m/S 742 mmHg 89%
    01:00 +12°C° 0 mm 2 m/S 742 mmHg 89%
    02:00 +12°C° 0 mm 2 m/S 742 mmHg 90%
    03:00 +12°C° 0 mm 2 m/S 741 mmHg 90%
    04:00 +12°C° 0 mm 2 m/S 741 mmHg 88%
    05:00 +12°C° 0 mm 2 m/S 741 mmHg 86%
    06:00 +12°C° 0 mm 2 m/S 741 mmHg 84%
    07:00 +13°C° 0 mm 3 m/S 741 mmHg 77%
    08:00 +16°C° 0 mm 3 m/S 741 mmHg 70%
    09:00 +18°C° 0 mm 4 m/S 742 mmHg 63%
    10:00 +19°C° 0 mm 4 m/S 741 mmHg 59%
    11:00 +20°C° 0 mm 4 m/S 741 mmHg 55%
    12:00 +21°C° 0 mm 5 m/S 741 mmHg 50%
    13:00 +21°C° 0 mm 4 m/S 741 mmHg 53%
    14:00 +21°C° 0 mm 4 m/S 740 mmHg 55%
    15:00 +20°C° 0 mm 4 m/S 740 mmHg 58%
    16:00 +19°C° 0 mm 4 m/S 740 mmHg 60%
    17:00 +18°C° 0 mm 4 m/S 740 mmHg 62%
    18:00 +17°C° 0 mm 4 m/S 740 mmHg 64%
    19:00 +17°C° 0 mm 4 m/S 741 mmHg 65%
    20:00 +15°C° 0 mm 4 m/S 741 mmHg 67%
    21:00 +15°C° 0 mm 4 m/S 741 mmHg 68%
    22:00 +16°C° 0 mm 3 m/S 741 mmHg 70%
    23:00 +14°C° 0 mm 3 m/S 741 mmHg 72%

    übermorgen, 20 Oktober, Freitag

    Zeit Temperatur Niederschläge Wind Luftdruck Luftfeuchtigkeit
    00:00 +13°C° 0 mm 3 m/S 741 mmHg 74%
    01:00 +13°C° 0,1 mm 3 m/S 741 mmHg 75%
    02:00 +13°C° 0,1 mm 3 m/S 741 mmHg 76%
    03:00 +13°C° 0,1 mm 3 m/S 741 mmHg 77%
    04:00 +13°C° 0,1 mm 3 m/S 741 mmHg 76%
    05:00 +13°C° 0,1 mm 4 m/S 741 mmHg 76%
    06:00 +13°C° 0,1 mm 4 m/S 741 mmHg 76%
    07:00 +13°C° 0,1 mm 4 m/S 741 mmHg 76%
    08:00 +14°C° 0,1 mm 5 m/S 742 mmHg 76%
    09:00 +15°C° 0,1 mm 5 m/S 742 mmHg 76%
    10:00 +15°C° 0,2 mm 5 m/S 742 mmHg 76%
    11:00 +15°C° 0,2 mm 5 m/S 742 mmHg 76%
    12:00 +15°C° 0,2 mm 5 m/S 742 mmHg 76%
    13:00 +15°C° 0,1 mm 5 m/S 742 mmHg 76%
    14:00 +15°C° 0,1 mm 5 m/S 742 mmHg 75%
    15:00 +15°C° 0,1 mm 5 m/S 742 mmHg 75%
    16:00 +14°C° 0 mm 4 m/S 742 mmHg 79%
    17:00 +13°C° 0 mm 3 m/S 742 mmHg 83%
    18:00 +12°C° 0 mm 3 m/S 743 mmHg 87%
    19:00 +12°C° 0 mm 3 m/S 743 mmHg 88%
    20:00 +12°C° 0 mm 3 m/S 743 mmHg 89%
    21:00 +12°C° 0 mm 2 m/S 743 mmHg 91%
    22:00 +12°C° 0 mm 3 m/S 743 mmHg 90%
    23:00 +12°C° 0 mm 3 m/S 742 mmHg 90%

    21 Oktober, Samstag

    Zeit Temperatur Niederschläge Wind Luftdruck Luftfeuchtigkeit
    00:00 +12°C° 0 mm 3 m/S 742 mmHg 90%
    01:00 +12°C° 0 mm 3 m/S 742 mmHg 89%
    02:00 +13°C° 0 mm 4 m/S 742 mmHg 88%
    03:00 +13°C° 0 mm 4 m/S 741 mmHg 87%
    04:00 +13°C° 0,2 mm 4 m/S 741 mmHg 86%
    05:00 +13°C° 0,2 mm 4 m/S 741 mmHg 85%
    06:00 +14°C° 0,2 mm 5 m/S 741 mmHg 84%
    07:00 +14°C° 0,5 mm 5 m/S 741 mmHg 85%
    08:00 +14°C° 0,5 mm 5 m/S 741 mmHg 85%
    09:00 +14°C° 0,5 mm 5 m/S 741 mmHg 86%
    10:00 +14°C° 0,4 mm 5 m/S 741 mmHg 87%
    11:00 +14°C° 0,4 mm 5 m/S 741 mmHg 87%
    12:00 +14°C° 0,4 mm 5 m/S 741 mmHg 88%
    13:00 +14°C° 0,1 mm 5 m/S 741 mmHg 83%
    14:00 +14°C° 0,1 mm 5 m/S 741 mmHg 78%
    15:00 +14°C° 0,1 mm 5 m/S 741 mmHg 73%
    16:00 +14°C° 0 mm 5 m/S 742 mmHg 74%
    17:00 +13°C° 0 mm 5 m/S 742 mmHg 75%
    18:00 +12°C° 0 mm 5 m/S 742 mmHg 76%
    19:00 +12°C° 0 mm 5 m/S 742 mmHg 75%
    20:00 +10°C° 0 mm 5 m/S 742 mmHg 73%
    21:00 +10°C° 0 mm 5 m/S 742 mmHg 72%
    22:00 +10°C° 0 mm 6 m/S 742 mmHg 72%
    23:00 +9°C° 0 mm 6 m/S 742 mmHg 71%

    22 Oktober, Sonntag

    Zeit Temperatur Niederschläge Wind Luftdruck Luftfeuchtigkeit
    00:00 +9°C° 0 mm 6 m/S 742 mmHg 71%
    01:00 +9°C° 0 mm 6 m/S 742 mmHg 73%
    02:00 +8°C° 0 mm 6 m/S 742 mmHg 75%
    03:00 +8°C° 0 mm 6 m/S 742 mmHg 77%
    04:00 +8°C° 0 mm 6 m/S 743 mmHg 77%
    05:00 +8°C° 0 mm 6 m/S 743 mmHg 78%
    06:00 +8°C° 0 mm 6 m/S 743 mmHg 78%
    07:00 +8°C° 0 mm 6 m/S 743 mmHg 76%
    08:00 +9°C° 0 mm 6 m/S 744 mmHg 75%
    09:00 +9°C° 0 mm 7 m/S 744 mmHg 73%
    10:00 +9°C° 0,1 mm 7 m/S 745 mmHg 72%
    11:00 +10°C° 0,1 mm 6 m/S 745 mmHg 71%
    12:00 +10°C° 0,1 mm 6 m/S 745 mmHg 70%
    13:00 +10°C° 0,1 mm 6 m/S 746 mmHg 68%
    14:00 +10°C° 0,1 mm 5 m/S 746 mmHg 67%
    15:00 +10°C° 0,1 mm 5 m/S 746 mmHg 65%
    16:00 +10°C° 0 mm 4 m/S 747 mmHg 68%
    17:00 +8°C° 0 mm 4 m/S 747 mmHg 70%
    18:00 +8°C° 0 mm 3 m/S 748 mmHg 73%
    19:00 +7°C° 0 mm 4 m/S 748 mmHg 76%
    20:00 +7°C° 0 mm 4 m/S 748 mmHg 79%
    21:00 +7°C° 0 mm 4 m/S 749 mmHg 82%
    22:00 +7°C° 0 mm 4 m/S 749 mmHg 84%
    23:00 +7°C° 0 mm 4 m/S 749 mmHg 86%

    23 Oktober, Montag

    Zeit Temperatur Niederschläge Wind Luftdruck Luftfeuchtigkeit
    00:00 +6°C° 0 mm 4 m/S 749 mmHg 89%
    01:00 +6°C° 0 mm 4 m/S 749 mmHg 88%
    02:00 +6°C° 0 mm 4 m/S 749 mmHg 88%
    03:00 +6°C° 0 mm 4 m/S 749 mmHg 88%
    04:00 +7°C° 0 mm 4 m/S 749 mmHg 87%
    05:00 +7°C° 0 mm 4 m/S 749 mmHg 86%
    06:00 +7°C° 0 mm 5 m/S 749 mmHg 86%
    07:00 +8°C° 0,2 mm 5 m/S 749 mmHg 85%
    08:00 +8°C° 0,2 mm 5 m/S 750 mmHg 84%
    09:00 +9°C° 0,2 mm 6 m/S 750 mmHg 83%
    10:00 +9°C° 0,1 mm 6 m/S 749 mmHg 82%
    11:00 +10°C° 0,1 mm 6 m/S 749 mmHg 80%
    12:00 +10°C° 0,1 mm 6 m/S 749 mmHg 79%
    13:00 +12°C° 0,1 mm 5 m/S 749 mmHg 78%
    14:00 +12°C° 0,1 mm 5 m/S 748 mmHg 77%
    15:00 +13°C° 0,1 mm 5 m/S 748 mmHg 76%
    16:00 +12°C° 0 mm 5 m/S 748 mmHg 77%
    17:00 +12°C° 0 mm 5 m/S 748 mmHg 78%
    18:00 +12°C° 0 mm 4 m/S 748 mmHg 80%
    19:00 +10°C° 0 mm 5 m/S 748 mmHg 80%
    20:00 +10°C° 0 mm 5 m/S 748 mmHg 80%
    21:00 +10°C° 0 mm 5 m/S 748 mmHg 80%
    22:00 +10°C° 0 mm 5 m/S 748 mmHg 81%
    23:00 +10°C° 0 mm 5 m/S 747 mmHg 82%
    Mehr zeigen